Hinsdale, NY

1:31 PM EST on January 17, 2017 (GMT -0500)
Cattaraugus County-Olean

Weather History for KOLE - May, 2012

Change the Weather History Date:

Saturday, May 5, 2012

  Actual Average (KBFD) Record (KBFD)
Temperature  
Mean Temperature 53 °F -  
Max Temperature 62 °F 61 °F 81 °F (1999)
Min Temperature 42 °F 38 °F 18 °F (1974)
Degree Days  
Heating Degree Days 12    
Growing Degree Days 3 (Base 50)    
Moisture  
Dew Point 43 °F    
Average Humidity 70    
Maximum Humidity 94    
Minimum Humidity 42    
Precipitation  
Precipitation 0.00 in - - ()
Sea Level Pressure  
Sea Level Pressure 30.03 in    
Wind  
Wind Speed 7 mph ()    
Max Wind Speed 15 mph    
Max Gust Speed 16 mph    
Visibility 9.7 miles    
Events      
Averages and records for this station are not official NWS values.
T = Trace of Precipitation, MM = Missing Value Source: Averaged Metar Reports

Daily Weather History Graph

Daily Weather History Graph

Search for Another Location

Airport or City:

Trip Planner

Search our weather history database for the weather conditions in past years. The results will help you decide how hot, cold, wet, or windy it might be!

Date:

Astronomy

May. 05, 2012 Rise Set
Actual Time 6:03 AM EDT 8:17 PM EDT
Civil Twilight 5:32 AM EDT 8:48 PM EDT
Nautical Twilight 4:53 AM EDT 9:27 PM EDT
Astronomical Twilight 4:11 AM EDT 10:09 PM EDT
Moon 8:08 PM EDT (5/5) 5:24 AM EDT (5/5)
Length of Visible Light 15h 16m
Length of Day
14h 14m
Full, 100% of the Moon is Illuminated
May 5
Full
May 5
Full
May 12
Last Quarter
May 20
New
May 28
First Quarter

Hourly Weather History & Observations

Time (EDT) Temp. Windchill Dew Point Humidity Pressure Visibility Wind Dir Wind Speed Gust Speed Precip Events Conditions
12:15 AM 59.0 °F - 53.6 °F 82% 30.00 in 10.0 mi NE 3.5 mph - N/A   Overcast
12:35 AM 59.0 °F - 53.6 °F 82% 30.00 in 10.0 mi North 3.5 mph - N/A   Overcast
12:55 AM 59.0 °F - 53.6 °F 82% 30.00 in 10.0 mi NNE 4.6 mph - N/A   Overcast
1:15 AM 59.0 °F - 51.8 °F 77% 30.00 in 10.0 mi NE 4.6 mph - N/A   Overcast
1:35 AM 57.2 °F - 51.8 °F 82% 30.00 in 10.0 mi NE 6.9 mph - N/A   Overcast
1:55 AM 57.2 °F - 51.8 °F 82% 30.00 in 10.0 mi NE 6.9 mph - N/A   Overcast
2:15 AM 55.4 °F - 51.8 °F 88% 29.99 in 10.0 mi ENE 4.6 mph - N/A   Overcast
2:35 AM 55.4 °F - 51.8 °F 88% 29.99 in 10.0 mi NNE 3.5 mph - N/A   Overcast
2:55 AM 55.4 °F - 51.8 °F 88% 29.99 in 10.0 mi ENE 6.9 mph - N/A   Overcast
3:15 AM 55.4 °F - 51.8 °F 88% 29.97 in 10.0 mi NE 6.9 mph - N/A   Overcast
3:35 AM 55.4 °F - 51.8 °F 88% 29.97 in 10.0 mi NE 5.8 mph - N/A   Overcast
3:55 AM 55.4 °F - 51.8 °F 88% 29.97 in 7.0 mi ENE 9.2 mph - N/A   Overcast
4:15 AM 53.6 °F - 51.8 °F 94% 29.97 in 5.0 mi ENE 8.1 mph - N/A   Overcast
4:35 AM 51.8 °F - 50.0 °F 94% 29.98 in 4.0 mi NE 10.4 mph - N/A   Overcast
4:55 AM 51.8 °F - 48.2 °F 88% 29.99 in 7.0 mi ENE 9.2 mph - N/A   Overcast
5:15 AM 50.0 °F - 46.4 °F 87% 29.99 in 10.0 mi ENE 10.4 mph - N/A   Overcast
5:35 AM 48.2 °F - 44.6 °F 87% 30.00 in 10.0 mi NE 10.4 mph - N/A   Overcast
5:55 AM 46.4 °F 41.5 °F 44.6 °F 93% 30.00 in 10.0 mi ENE 10.4 mph - N/A   Overcast
6:15 AM 46.4 °F 41.1 °F 42.8 °F 87% 30.00 in 10.0 mi ENE 11.5 mph - N/A   Overcast
6:35 AM 46.4 °F 41.9 °F 42.8 °F 87% 30.01 in 10.0 mi ENE 9.2 mph - N/A   Overcast
6:55 AM 44.6 °F 38.8 °F 42.8 °F 93% 30.02 in 10.0 mi NE 11.5 mph - N/A   Overcast
7:15 AM 44.6 °F 39.2 °F 42.8 °F 93% 30.03 in 10.0 mi ENE 10.4 mph - N/A   Overcast
7:35 AM 44.6 °F 39.7 °F 41.0 °F 87% 30.03 in 10.0 mi ENE 9.2 mph - N/A   Overcast
7:55 AM 44.6 °F 37.8 °F 41.0 °F 87% 30.03 in 10.0 mi ENE 15.0 mph - N/A   Overcast
8:15 AM 44.6 °F 38.8 °F 41.0 °F 87% 30.03 in 10.0 mi ENE 11.5 mph - N/A   Overcast
8:35 AM 46.4 °F 41.9 °F 42.8 °F 87% 30.03 in 10.0 mi ENE 9.2 mph - N/A   Overcast
8:55 AM 46.4 °F 41.9 °F 42.8 °F 87% 30.04 in 10.0 mi NE 9.2 mph - N/A   Overcast
9:15 AM 46.4 °F 42.9 °F 42.8 °F 87% 30.05 in 10.0 mi ENE 6.9 mph - N/A   Overcast
9:35 AM 48.2 °F - 42.8 °F 82% 30.05 in 10.0 mi NE 8.1 mph - N/A   Overcast
9:55 AM 50.0 °F - 42.8 °F 76% 30.06 in 10.0 mi NE 6.9 mph - N/A   Overcast
10:15 AM 50.0 °F - 42.8 °F 76% 30.06 in 10.0 mi ENE 5.8 mph - N/A   Overcast
10:35 AM 50.0 °F - 42.8 °F 76% 30.07 in 10.0 mi NE 8.1 mph - N/A   Overcast
10:55 AM 50.0 °F - 42.8 °F 76% 30.07 in 10.0 mi ENE 8.1 mph - N/A   Overcast
11:15 AM 50.0 °F - 42.8 °F 76% 30.07 in 10.0 mi NE 6.9 mph - N/A   Overcast
11:35 AM 51.8 °F - 44.6 °F 76% 30.07 in 10.0 mi ENE 5.8 mph - N/A   Mostly Cloudy
11:55 AM 55.4 °F - 46.4 °F 72% 30.07 in 10.0 mi NE 4.6 mph - N/A   Scattered Clouds
12:15 PM 55.4 °F - 46.4 °F 72% 30.06 in 10.0 mi ENE 8.1 mph - N/A   Scattered Clouds
12:35 PM 57.2 °F - 46.4 °F 67% 30.06 in 10.0 mi ENE 5.8 mph - N/A   Clear
12:55 PM 59.0 °F - 44.6 °F 59% 30.05 in 10.0 mi ENE 8.1 mph - N/A   Clear
1:15 PM 59.0 °F - 42.8 °F 55% 30.04 in 10.0 mi NE 9.2 mph - N/A   Clear
1:35 PM 60.8 °F - 42.8 °F 52% 30.04 in 10.0 mi ENE 9.2 mph - N/A   Clear
1:55 PM 60.8 °F - 41.0 °F 48% 30.04 in 10.0 mi East 9.2 mph - N/A   Clear
2:15 PM 60.8 °F - 41.0 °F 48% 30.04 in 10.0 mi NNE 5.8 mph - N/A   Clear
2:35 PM 60.8 °F - 41.0 °F 48% 30.04 in 10.0 mi NE 11.5 mph - N/A   Clear
2:55 PM 62.6 °F - 41.0 °F 45% 30.03 in 10.0 mi NNE 9.2 mph - N/A   Clear
3:15 PM 60.8 °F - 41.0 °F 48% 30.03 in 10.0 mi NE 8.1 mph - N/A   Clear
3:35 PM 62.6 °F - 41.0 °F 45% 30.03 in 10.0 mi East 8.1 mph - N/A   Clear
3:55 PM 60.8 °F - 41.0 °F 48% 30.02 in 10.0 mi East 8.1 mph - N/A   Clear
4:15 PM 62.6 °F - 39.2 °F 42% 30.02 in 10.0 mi ENE 8.1 mph - N/A   Clear
4:35 PM 62.6 °F - 41.0 °F 45% 30.02 in 10.0 mi ENE 8.1 mph - N/A   Clear
4:55 PM 60.8 °F - 39.2 °F 45% 30.02 in 10.0 mi NNE 8.1 mph - N/A   Clear
5:15 PM 60.8 °F - 37.4 °F 42% 30.02 in 10.0 mi NNE 6.9 mph - N/A   Clear
5:35 PM 60.8 °F - 37.4 °F 42% 30.02 in 5.0 mi NE 8.1 mph - N/A   Haze
5:55 PM 59.0 °F - 39.2 °F 48% 30.01 in 10.0 mi NE 8.1 mph - N/A   Clear
6:15 PM 59.0 °F - 41.0 °F 51% 30.02 in 10.0 mi NE 6.9 mph - N/A   Clear
6:35 PM 59.0 °F - 41.0 °F 51% 30.02 in 10.0 mi ENE 8.1 mph - N/A   Clear
6:55 PM 57.2 °F - 42.8 °F 59% 30.02 in 10.0 mi ENE 10.4 mph - N/A   Clear
7:15 PM 55.4 °F - 41.0 °F 58% 30.04 in 10.0 mi NE 9.2 mph - N/A   Clear
7:35 PM 53.6 °F - 41.0 °F 62% 30.04 in 10.0 mi NE 10.4 mph 16.1 mph N/A   Clear
7:55 PM 51.8 °F - 41.0 °F 67% 30.04 in 10.0 mi ENE 9.2 mph - N/A   Scattered Clouds
8:15 PM 50.0 °F - 39.2 °F 66% 30.06 in 10.0 mi NE 9.2 mph - N/A   Scattered Clouds
8:35 PM 50.0 °F - 37.4 °F 62% 30.07 in 10.0 mi NE 10.4 mph - N/A   Clear
8:55 PM 48.2 °F - 37.4 °F 66% 30.08 in 10.0 mi ENE 10.4 mph 16.1 mph N/A   Clear
9:15 PM 46.4 °F 41.5 °F 35.6 °F 66% 30.08 in 10.0 mi ENE 10.4 mph - N/A   Clear
9:35 PM 46.4 °F 41.5 °F 33.8 °F 62% 30.08 in 10.0 mi East 10.4 mph - N/A   Clear
9:55 PM 46.4 °F 42.9 °F 33.8 °F 62% 30.08 in 10.0 mi ENE 6.9 mph - N/A   Scattered Clouds
10:15 PM 46.4 °F 42.9 °F 32.0 °F 57% 30.09 in 10.0 mi ENE 6.9 mph - N/A   Mostly Cloudy
10:35 PM 44.6 °F 40.7 °F 32.0 °F 61% 30.09 in 10.0 mi ENE 6.9 mph - N/A   Overcast
11:15 PM 44.6 °F 39.7 °F 32.0 °F 61% 30.08 in 10.0 mi East 9.2 mph - N/A   Scattered Clouds
11:55 PM 42.8 °F 38.0 °F 32.0 °F 66% 30.08 in 10.0 mi East 8.1 mph - N/A   Clear